• In Germany
  • List of Countries
  • For 7 days
  • Water Temperature
  • Satellite Maps
  • Weather Map
  • Weather Widgets
  • user-avatar
    Login

    Hourly Weather Northallerton

    Today, 23 October, Tuesday

    Time Temperature Precipitation Wind Pressure Humidity
    00:00 +9°C° 0 mm 8 mps 768 mmHg 76%
    01:00 +9°C° 0 mm 8 mps 768 mmHg 76%
    02:00 +9°C° 0 mm 8 mps 767 mmHg 76%
    03:00 +9°C° 0 mm 8 mps 767 mmHg 76%
    04:00 +10°C° 0 mm 9 mps 767 mmHg 75%
    05:00 +10°C° 0 mm 9 mps 766 mmHg 75%
    06:00 +10°C° 0 mm 9 mps 766 mmHg 74%
    07:00 +9°C° 0 mm 10 mps 766 mmHg 75%
    08:00 +11°C° 0 mm 10 mps 766 mmHg 76%
    09:00 +11°C° 0 mm 10 mps 766 mmHg 76%
    10:00 +12°C° 0 mm 10 mps 766 mmHg 76%
    11:00 +13°C° 0 mm 10 mps 765 mmHg 75%
    12:00 +14°C° 0 mm 10 mps 765 mmHg 75%
    13:00 +14°C° 0 mm 10 mps 765 mmHg 76%
    14:00 +14°C° 0 mm 10 mps 765 mmHg 77%
    15:00 +15°C° 0 mm 9 mps 765 mmHg 79%
    16:00 +15°C° 0 mm 9 mps 765 mmHg 80%
    17:00 +15°C° 0 mm 9 mps 765 mmHg 81%
    18:00 +15°C° 0 mm 9 mps 765 mmHg 82%
    19:00 +13°C° 0 mm 9 mps 765 mmHg 82%
    20:00 +13°C° 0 mm 9 mps 766 mmHg 83%
    21:00 +13°C° 0 mm 8 mps 766 mmHg 83%
    22:00 +13°C° 0 mm 8 mps 766 mmHg 83%
    23:00 +12°C° 0 mm 8 mps 766 mmHg 84%

    Tomorrow, 24 October, Wednesday

    Time Temperature Precipitation Wind Pressure Humidity
    00:00 +12°C° 0 mm 8 mps 766 mmHg 84%
    01:00 +12°C° 0 mm 7 mps 766 mmHg 85%
    02:00 +11°C° 0 mm 6 mps 766 mmHg 85%
    03:00 +11°C° 0 mm 6 mps 766 mmHg 86%
    04:00 +11°C° 0 mm 6 mps 766 mmHg 86%
    05:00 +12°C° 0 mm 5 mps 766 mmHg 87%
    06:00 +10°C° 0 mm 5 mps 766 mmHg 88%
    07:00 +12°C° 0 mm 5 mps 766 mmHg 86%
    08:00 +11°C° 0 mm 6 mps 766 mmHg 84%
    09:00 +11°C° 0 mm 6 mps 767 mmHg 82%
    10:00 +13°C° 0 mm 6 mps 767 mmHg 78%
    11:00 +13°C° 0 mm 6 mps 767 mmHg 75%
    12:00 +13°C° 0 mm 6 mps 767 mmHg 71%
    13:00 +13°C° 0 mm 6 mps 766 mmHg 72%
    14:00 +13°C° 0 mm 6 mps 766 mmHg 73%
    15:00 +13°C° 0 mm 6 mps 765 mmHg 74%
    16:00 +10°C° 0 mm 6 mps 765 mmHg 77%
    17:00 +9°C° 0 mm 5 mps 765 mmHg 81%
    18:00 +8°C° 0 mm 5 mps 765 mmHg 85%
    19:00 +8°C° 0 mm 5 mps 765 mmHg 86%
    20:00 +8°C° 0 mm 5 mps 765 mmHg 86%
    21:00 +8°C° 0 mm 5 mps 765 mmHg 87%
    22:00 +7°C° 0 mm 5 mps 765 mmHg 87%
    23:00 +7°C° 0 mm 4 mps 765 mmHg 88%

    Day after tomorrow, 25 October, Thursday

    Time Temperature Precipitation Wind Pressure Humidity
    00:00 +7°C° 0 mm 4 mps 764 mmHg 88%
    01:00 +7°C° 0 mm 4 mps 764 mmHg 89%
    02:00 +7°C° 0 mm 4 mps 764 mmHg 89%
    03:00 +7°C° 0 mm 4 mps 763 mmHg 90%
    04:00 +7°C° 0 mm 4 mps 763 mmHg 90%
    05:00 +7°C° 0 mm 5 mps 763 mmHg 90%
    06:00 +7°C° 0 mm 5 mps 762 mmHg 90%
    07:00 +8°C° 0 mm 5 mps 762 mmHg 87%
    08:00 +9°C° 0 mm 5 mps 762 mmHg 84%
    09:00 +10°C° 0 mm 6 mps 762 mmHg 81%
    10:00 +10°C° 0 mm 6 mps 762 mmHg 78%
    11:00 +11°C° 0 mm 6 mps 761 mmHg 76%
    12:00 +13°C° 0 mm 6 mps 761 mmHg 73%
    13:00 +13°C° 0 mm 6 mps 761 mmHg 74%
    14:00 +13°C° 0 mm 6 mps 760 mmHg 76%
    15:00 +11°C° 0 mm 6 mps 760 mmHg 77%
    16:00 +10°C° 0 mm 5 mps 759 mmHg 81%
    17:00 +9°C° 0 mm 5 mps 759 mmHg 84%
    18:00 +8°C° 0 mm 4 mps 759 mmHg 87%
    19:00 +8°C° 0 mm 5 mps 758 mmHg 87%
    20:00 +8°C° 0 mm 5 mps 758 mmHg 87%
    21:00 +8°C° 0 mm 5 mps 757 mmHg 86%
    22:00 +8°C° 0 mm 5 mps 756 mmHg 85%
    23:00 +8°C° 0 mm 6 mps 756 mmHg 83%

    26 October, Friday

    Time Temperature Precipitation Wind Pressure Humidity
    00:00 +8°C° 0 mm 6 mps 755 mmHg 81%
    01:00 +8°C° 0.1 mm 6 mps 754 mmHg 82%
    02:00 +8°C° 0.1 mm 6 mps 754 mmHg 82%
    03:00 +9°C° 0.1 mm 7 mps 753 mmHg 82%
    04:00 +8°C° 0.1 mm 6 mps 753 mmHg 82%
    05:00 +7°C° 0.1 mm 6 mps 753 mmHg 81%
    06:00 +6°C° 0.1 mm 5 mps 753 mmHg 80%
    07:00 +6°C° 0.2 mm 5 mps 753 mmHg 79%
    08:00 +5°C° 0.2 mm 6 mps 753 mmHg 78%
    09:00 +5°C° 0.2 mm 6 mps 753 mmHg 77%
    10:00 +5°C° 0.4 mm 6 mps 753 mmHg 75%
    11:00 +5°C° 0.4 mm 6 mps 754 mmHg 74%
    12:00 +5°C° 0.4 mm 7 mps 754 mmHg 72%
    13:00 +6°C° 0.1 mm 7 mps 754 mmHg 70%
    14:00 +6°C° 0.1 mm 7 mps 755 mmHg 69%
    15:00 +6°C° 0.1 mm 7 mps 755 mmHg 67%
    16:00 +5°C° 0.1 mm 7 mps 756 mmHg 70%
    17:00 +4°C° 0.1 mm 7 mps 757 mmHg 72%
    18:00 +3°C° 0.1 mm 7 mps 758 mmHg 75%
    19:00 +3°C° 0 mm 7 mps 758 mmHg 74%
    20:00 +3°C° 0 mm 7 mps 759 mmHg 73%
    21:00 +2°C° 0 mm 7 mps 760 mmHg 72%
    22:00 +2°C° 0 mm 7 mps 760 mmHg 72%
    23:00 +1°C° 0 mm 6 mps 760 mmHg 73%

    27 October, Saturday

    Time Temperature Precipitation Wind Pressure Humidity
    00:00 +1°C° 0 mm 6 mps 760 mmHg 73%
    01:00 +1°C° 0 mm 6 mps 760 mmHg 74%
    02:00 -1°C° 0 mm 6 mps 760 mmHg 75%
    03:00 -1°C° 0 mm 6 mps 760 mmHg 76%
    04:00 -1°C° 0 mm 6 mps 760 mmHg 75%
    05:00 -1°C° 0 mm 6 mps 760 mmHg 75%
    06:00 -1°C° 0 mm 6 mps 759 mmHg 74%
    07:00 -1°C° 0 mm 7 mps 759 mmHg 70%
    08:00 0°C° 0 mm 8 mps 759 mmHg 66%
    09:00 +1°C° 0 mm 8 mps 759 mmHg 62%
    10:00 +1°C° 0.1 mm 9 mps 759 mmHg 61%
    11:00 +2°C° 0.1 mm 10 mps 759 mmHg 60%
    12:00 +3°C° 0.1 mm 10 mps 759 mmHg 59%
    13:00 +3°C° 0.2 mm 10 mps 759 mmHg 58%
    14:00 +3°C° 0.2 mm 10 mps 759 mmHg 56%
    15:00 +3°C° 0.2 mm 10 mps 759 mmHg 55%
    16:00 +2°C° 0 mm 9 mps 759 mmHg 57%
    17:00 +2°C° 0 mm 7 mps 759 mmHg 60%
    18:00 +1°C° 0 mm 6 mps 760 mmHg 62%
    19:00 +1°C° 0 mm 6 mps 760 mmHg 66%
    20:00 +1°C° 0 mm 6 mps 760 mmHg 70%
    21:00 +1°C° 0 mm 6 mps 760 mmHg 73%
    22:00 +1°C° 0 mm 6 mps 760 mmHg 75%
    23:00 +1°C° 0 mm 6 mps 760 mmHg 76%

    28 October, Sunday

    Time Temperature Precipitation Wind Pressure Humidity
    00:00 +2°C° 0 mm 6 mps 760 mmHg 77%
    01:00 +2°C° 0 mm 6 mps 760 mmHg 78%
    02:00 +1°C° 0 mm 6 mps 760 mmHg 79%
    03:00 +1°C° 0 mm 6 mps 760 mmHg 80%
    04:00 +1°C° 0 mm 5 mps 761 mmHg 81%
    05:00 +1°C° 0 mm 5 mps 761 mmHg 83%
    06:00 +1°C° 0 mm 5 mps 761 mmHg 84%
    07:00 +3°C° 0 mm 4 mps 761 mmHg 81%
    08:00 +4°C° 0 mm 4 mps 762 mmHg 79%
    09:00 +5°C° 0 mm 4 mps 762 mmHg 76%
    10:00 +6°C° 0.1 mm 4 mps 762 mmHg 71%
    11:00 +7°C° 0.1 mm 4 mps 762 mmHg 67%
    12:00 +7°C° 0.1 mm 4 mps 763 mmHg 62%
    13:00 +7°C° 0.1 mm 4 mps 762 mmHg 63%
    14:00 +8°C° 0.1 mm 3 mps 762 mmHg 64%
    15:00 +8°C° 0.1 mm 3 mps 762 mmHg 65%
    16:00 +7°C° 0 mm 3 mps 762 mmHg 69%
    17:00 +5°C° 0 mm 2 mps 762 mmHg 73%
    18:00 +4°C° 0 mm 2 mps 762 mmHg 76%
    19:00 +4°C° 0 mm 2 mps 762 mmHg 77%
    20:00 +3°C° 0 mm 2 mps 762 mmHg 78%
    21:00 +4°C° 0 mm 1 mps 761 mmHg 78%
    22:00 +4°C° 0 mm 1 mps 761 mmHg 79%
    23:00 +4°C° 0 mm 1 mps 760 mmHg 80%

    29 October, Monday

    Time Temperature Precipitation Wind Pressure Humidity
    00:00 +3°C° 0 mm 1 mps 759 mmHg 81%
    01:00 +3°C° 0 mm 1 mps 759 mmHg 82%
    02:00 +3°C° 0 mm 1 mps 758 mmHg 82%
    03:00 +3°C° 0 mm 1 mps 757 mmHg 83%
    04:00 +2°C° 0 mm 2 mps 757 mmHg 84%
    05:00 +2°C° 0 mm 2 mps 756 mmHg 85%
    06:00 +1°C° 0 mm 3 mps 755 mmHg 86%
    07:00 +2°C° 0 mm 3 mps 755 mmHg 82%
    08:00 +1°C° 0 mm 4 mps 754 mmHg 79%
    09:00 +2°C° 0 mm 5 mps 754 mmHg 76%
    10:00 +3°C° 0 mm 6 mps 753 mmHg 70%
    11:00 +4°C° 0 mm 7 mps 752 mmHg 65%
    12:00 +5°C° 0 mm 7 mps 751 mmHg 59%
    13:00 +5°C° 0 mm 7 mps 750 mmHg 60%
    14:00 +5°C° 0 mm 7 mps 750 mmHg 62%
    15:00 +5°C° 0 mm 6 mps 749 mmHg 63%
    16:00 +4°C° 0 mm 6 mps 748 mmHg 66%
    17:00 +4°C° 0 mm 6 mps 748 mmHg 69%
    18:00 +3°C° 0 mm 6 mps 747 mmHg 71%
    19:00 +3°C° 0 mm 6 mps 747 mmHg 72%
    20:00 +3°C° 0 mm 6 mps 747 mmHg 73%
    21:00 +3°C° 0 mm 6 mps 746 mmHg 74%
    22:00 +3°C° 0.1 mm 5 mps 746 mmHg 76%
    23:00 +2°C° 0.1 mm 5 mps 746 mmHg 78%
    Show more